Погода в Виви

Погода в Виви : погода сейчас, прогноз погоды и архив. Всё, что Вы хотите узнать о погоде в Виви!

Поиск расширенной информации на нашем сайте:

Другие новости

Новости СМИ2

Главная страница сайта

Новости сайта

03.07.2017

Напоминаем, что на нашем специализированном сайте Метеоцентр.Азия вы можете получить высокодетализированные автоматические прогнозы погоды по пунктам России, СНГ и мира в авиационном формате (включающие направление и скорость ветра, видимость, явления погоды, количество и форму облачности, нижнюю и верхнюю границу облачности).


Погода в Виви - сегодня

Время (UTC), дата Ветер
(°,м/с) 
Видим.   Явления Облачность Т
(°С)
Тd
(°С)
f(%) Тe
(°С)
Pmin
(гПа)
dP
(гПа)
Po
(мм)
O2
(г/м3)
Тmin Tmax R s Состояние
почвы
03 15.05.18 230 (ЮЗ) 20000 м    8/3 600 м верхняя 
[Cu med, cong|Cs]
+6.3 -6.9 38 +7  1005.2  0.1  748  295           
06 15.05.18 тихо ()   20000 м    10/8 600 м верхняя 
[Cu Sc|Cs]
+8.4 -7.7 31 +8  1004.2  -0.6  732  287           
09 15.05.18 200 (Ю) 20000 м    10/4 1000 м средняя, верхняя 
[Sc|As trans|Ci fib]
+9.8 -7.9 28 +11  1003.3  -0.8  732  285           
18 15.05.18 тихо ()   н/о    6/6 1000 м 
[Sc]
+3.4 -3 63 +3  1004  732  292           
00 16.05.18 140 (ЮВ) 20000 м    10/3 1000 м верхняя 
[Sc|Cs]
+7.3 +1.7 68 +8  1002.9  731  287  -1.3         
06 16.05.18 180 (Ю) 20000 м    10/9 600 м кучево-дожд., средняя 
[Cb cap|As trans]
+13.2 -1.4 36 +13  998.1  728  280           
12 16.05.18 180 (Ю) 20000 м  {ливн. осадки}  10/8 600 м кучево-дожд., верхняя 
[Cb cap|Ci fib]
+6.3 +5.4 94 +7  1000.6  730  286    +13.8     
18 16.05.18 140 (ЮВ) н/о    3/0 средняя 
[As trans]
+1.5 +1.2 98 +2  1001.4  730  292           
00 17.05.18 230 (ЮЗ) 20000 м    10/10 600 м кучево-дожд. 
[Cb cap]
+2.4 -2.9 68 +2  1002.3  731  292  -3.2         
06 17.05.18 250 (З) 20000 м    10/10 1000 м 
[Sc]
+6.1 -3.1 52 +5  1002.3  731  288           
00 18.05.18 050 (СВ) 10 км  слаб. ливневой снег  10/10 600 м кучево-дожд. 
[Cb cap]
-0.3 -0.3 100 1001.5  730  294  -0.3    равномерный
мокрый или
старый снег
100% 
18 18.05.18 тихо ()   н/о    3/0 средняя 
[As trans]
-6.6 -7.4 94 -7  1011.2  736  305           
00 19.05.18 290 (З) 20000 м    8/0 верхняя 
[Cs]
-0.6 -8.6 55 1011.1  737  298  -9.2      равномерный
мокрый или
старый снег
100% 
06 19.05.18 250 (З) 20000 м    10/4 1000 м верхняя 
[Sc|Ci fib]
+4.7 -9.9 34 +4  1011.5  738  293           
18 19.05.18 тихо ()   н/о    4/0 верхняя 
[Cs]
-3.1 -10.3 57 -3  1016.8  741  303           
00 20.05.18 тихо ()   20000 м    10/0 верхняя 
[Cs]
+0.2 -4.9 69 1017.4  742  299  -7.3         
06 20.05.18 360 (С) 20000 м    8/0 верхняя 
[Cs]
+9.8 -5.9 33 +11  1016.3  741  289           
18 20.05.18 тихо ()   н/о    ясно 
-3.9 -8.4 71 -4  1019.2  742  304           
00 21.05.18 230 (ЮЗ) 20000 м    ясно 
+2.7 -4.2 60 +3  1018.2  742  297  -6.4         
06 21.05.18 тихо ()   20000 м    ясно 
+14.1 -4.2 28 +14  1012.8  739  284           
18 21.05.18 тихо ()   н/о    3/0 верхняя 
[Ci fib]
-2.1 -8.4 62 -2  1006.4  733  299           
00 22.05.18 140 (ЮВ) 20000 м    6/0 средняя, верхняя 
[As trans|Ci fib]
+7.8 -3.6 44 +9  1000.4  730  286  -3.6         
06 22.05.18 200 (Ю) 20000 м    10/6 2000 м средняя, верхняя 
[Ac As|Ci fib]
+14.1 -2.5 32 +15  994.1  726  278           
18 22.05.18 тихо ()   н/о    10/10 2000 м 
[Ac As]
+4.5 +3.5 93 +5  992.7  724  286           
00 23.05.18 230 (ЮЗ) 20000 м    10/4 1000 м средняя 
[Sc|Ac As]
+4.7 +3.2 90 +6  992.2  724  286  +4.2         
Время (UTC), дата Ветер
(°,м/с) 
Видим.   Явления Облачность Т
(°С)
Тd
(°С)
f(%) Тe
(°С)
Pmin
(гПа)
dP
(гПа)
Po
(мм)
O2
(г/м3)
Тmin Tmax R s Состояние
почвы

Для получения пояснительной информации подведите курсор к названию столбца.

ПОГОДА в Виви - архив

Всё, что Вы хотите узнать о погоде в Виви - удобно и подробно!

Выберите нужную дату (начиная с 1 января 2015* года) и нажмите кнопку "Найти".
Будут отображены архивные сводки погоды по пункту Виви, начиная с указанной даты.


Отображать данные в формате CSV (для использования в таблицах Excel)


Внимание! Наш архив погоды предназначен исключительно для личного некоммерческого использования в познавательных целях. Если Вам необходимы официальные справки о состоянии погоды (для производственных, юридических, коммерческих и т.п. целей), обращайтесь в органы Росгидромета.

*Примечание: данная дата относится к архиву по метеостанциям СССР (Россия, СНГ, Балтия).
Архив по метеостанциям Зарубежной Европы и Азии (кроме Китая) хранится 10 дней, по другим регионам земного шара (Китай, Африка, Америка, Австралия, Океания) - 1 день.

Виви - район местоположения метеостанции


Название, широта, долгота, высота метеостанции:
Виви 63.9°ш. 97.8°д. 109 м над ур. моря [Российская Федерация]

Дополнительная информация

В oтличие oт бoльшинства пoгoдных сайтoв мы публикуем пoдрoбную метеoинфoрмацию в детальнoм прoфессиoнальнoм фoрмате.

Характеристики температуры и влажнoсти вoздуха измеряются на высoте 2 м в тени вдали oт зданий и деревьев.
Скoрoсть ветра измеряется на высoте 10 м (на урoвне рoста челoвека скoрoсть ветра ниже в 1.5-2 раза). Если метеoстанция нахoдится в гoрoде или в лесу, тo скoрoсть ветра занижена на 2-4 м/с пo сравнению с oткрытым местoм. Скoрoсть ветра над акватoриями крупных рек и oзёр, а также на вершинах хoлмoв на 2-5 м/с выше, чем в oбычных услoвиях.
Атмoсфернoе давление в разных тoчках местнoсти мoжет значительнo oтличаться oт давления на метеoстанции, в зависимoсти oт услoвий рельефа (при пoдъёме на 10 м давление пoнижается примернo на 1 мм рт.ст.).